Regional Weather Roundup
Issued by NWS

Home | Current Version | Previous Version | Graphics & Text | Print | Product List | Glossary On
Versions: 1 2 3 4 5 6 7 8 9 10 11 12 13 14 15 16 17 18 19 20 21 22 23 24 25 26 27 28 29 30 31 32 33 34 35 36 37 38 39 40 41 42 43 44 45 46 47 48 49 50
000
ASUS43 KIND 210109
RWRIN

WEATHER ROUNDUP FOR INDIANA
NATIONAL WEATHER SERVICE INDIANAPOLIS IN
900 PM EDT SAT SEP 20 2014

NOTE: "FAIR" INDICATES FEW OR NO CLOUDS BELOW 12,000 FEET WITH NO
SIGNIFICANT WEATHER AND/OR OBSTRUCTIONS TO VISIBILITY.

* - STATION DOES NOT REPORT WEATHER SUCH AS PRECIPITATION OR FOG.

+ - STATION NOT QUALITY CONTROLLED BY THE NATIONAL WEATHER SERVICE.
    USE DATA WITH CAUTION...ESPECIALLY DEWPOINT AND RELATIVE
    HUMIDITY OBSERVATIONS.

INZ001>003-010>013-019-020-210200-
NORTHWEST INDIANA

CITY           SKY/WX    TMP DP  RH WIND       PRES   REMARKS
GARY /AIRPORT/ MOCLDY    73  66  78 S5        29.82S
LA PORTE +     MOCLDY    65  65 100 SW6       29.84S
MICHIGAN CITY+ CLOUDY    66  66 100 S8        29.82S
MONTICELLO +   LGT RAIN  66  65  97 S9        29.87R
RENSSELAER +   MOCLDY    68  66  94 S7        29.86S
VALPARAISO     MOCLDY    69  66  90 SW7       29.84S

$$

LMZ046-743>745-210200-
SOUTHERN LAKE MICHIGAN

STATION/POSITION TIME  TEMP WIND        PRES
                       AIR  DIR/SP/G
                 (UTC) (F)  (DEG/KT/KT) (MB)
MICHIGAN CITY    0100   68  160/ 15/ 20   N/A

$$

INZ004-005-014>016-021>024-210200-
NORTH CENTRAL INDIANA

CITY           SKY/WX    TMP DP  RH WIND       PRES   REMARKS
GOSHEN         CLOUDY   N/A N/A N/A S15       29.84S
LOGANSPORT +   LGT RAIN  64  63  94 SW10      29.88S
PERU/GRISSOM   LGT RAIN  65  65 100 SW12      29.88F
ROCHESTER +    CLOUDY    68  68 100 SW8       29.87S
SOUTH BEND     PTCLDY    66  63  90 SW9       29.83S
WARSAW +       CLOUDY    64  64 100 S6        29.86F

$$

INZ006>009-017-018-025>027-210200-
NORTHEAST INDIANA

CITY           SKY/WX    TMP DP  RH WIND       PRES   REMARKS
ANGOLA *+      MOCLDY    63  63 100 S8        29.86R
AUBURN +       LGT RAIN  64  63  94 SW9       29.88R
FORT WAYNE     TSTM      65  63  93 S14       29.89F
HUNTINGTON +   LGT RAIN  64  63  97 S3        29.88F

$$

INZ028-029-035-036-043>045-051>053-210200-
WEST CENTRAL INDIANA

CITY           SKY/WX    TMP DP  RH WIND       PRES   REMARKS
GREENCASTLE +  CLOUDY    70  66  88 CALM      29.92F
LAFAYETTE      LGT RAIN  66  65  96 NE5       29.88F
TERRE HAUTE    TSTM      75  68  78 S7        29.92R

$$

INZ030>032-037>040-046>048-054>057-064-065-210200-
CENTRAL INDIANA

CITY           SKY/WX    TMP DP  RH WIND       PRES   REMARKS
CP ATTERBURY + CLOUDY    70  64  83 S3        29.95S
COLUMBUS       PTCLDY    72  66  83 S5        29.95S
FRANKFORT +    CLOUDY   N/A N/A N/A S5        29.89F
INDIANAPOLIS   LGT RAIN  72  68  87 SW6       29.91F
-EAGLE CREEK   CLOUDY    71  66  84 CALM      29.91F
KOKOMO *+      CLOUDY    66  63  88 S10       29.88F
MARION +       CLOUDY    64  62  93 CALM      29.92S
MT COMFORT *+  CLOUDY    70  63  78 NE8       29.93F
SHELBYVILLE    CLOUDY    74  66  76 S8        29.92F
ZIONSVILLE +   CLOUDY    64  61  88 CALM      29.93R

$$

INZ033-034-041-042-049-050-058-059-210200-
EAST CENTRAL INDIANA

CITY           SKY/WX    TMP DP  RH WIND       PRES   REMARKS
MUNCIE         RAIN      67  62  84 N5        29.94R

$$

INZ060-061-067>069-081>083-085>088-210200-
SOUTHWEST INDIANA

CITY           SKY/WX    TMP DP  RH WIND       PRES   REMARKS
EVANSVILLE     PTCLDY    75  65  70 SW3       29.96R
WASHINGTON +   PTCLDY    70  66  88 S7        29.94R

$$

INZ062-063-066-070>080-084-089>092-210200-
SOUTH CENTRAL AND SOUTHEAST INDIANA

CITY           SKY/WX    TMP DP  RH WIND       PRES   REMARKS
BLOOMINGTON    MOCLDY    69  65  86 CALM      29.95R
SEYMOUR +      MOCLDY    70  66  88 CALM      29.96

$$




USA.gov is the U.S. government's official web portal to all federal, state and local government web resources and services.